Lander, WY

10:59 AM MDT on July 24, 2017 (GMT -0600)
Hunt

Weather History for KLND - May, 2015

Change the Weather History Date:

Friday, May 15, 2015

  Actual Average Record
Temperature  
Mean Temperature 49 °F 53 °F  
Max Temperature 58 °F 66 °F 85 °F (1987)
Min Temperature 40 °F 40 °F 19 °F (1896)
Degree Days  
Heating Degree Days 16 12  
Month to date heating degree days 234 214  
Since 1 July heating degree days 6716 7468  
Cooling Degree Days 0 0  
Month to date cooling degree days 0 0  
Year to date cooling degree days 0 0  
Moisture  
Dew Point 39 °F    
Average Humidity 64    
Maximum Humidity 89    
Minimum Humidity 39    
Precipitation  
Precipitation T in 0.07 in 1.61 in (1930)
Month to date precipitation 2.31 1.09  
Year to date precipitation 6.73 5.11  
Snow  
Snow 0.00 in 0.10 in - ()
Month to date snowfall 0.7 3.8  
Since 1 July snowfall 73.8 90.3  
Snow Depth 0.00 in    
Sea Level Pressure  
Sea Level Pressure 29.63 in    
Wind  
Wind Speed 8 mph (WSW)    
Max Wind Speed 30 mph    
Max Gust Speed 36 mph    
Visibility 10 miles    
Events Rain    
T = Trace of Precipitation, MM = Missing Value Source: NWS Daily Summary

Daily Weather History Graph

Daily Weather History Graph

Search for Another Location

Airport or City:

Trip Planner

Search our weather history database for the weather conditions in past years. The results will help you decide how hot, cold, wet, or windy it might be!

Date:

Astronomy

May. 15, 2015 Rise Set
Actual Time 5:52 AM MDT 8:30 PM MDT
Civil Twilight 5:19 AM MDT 9:03 PM MDT
Nautical Twilight 4:39 AM MDT 9:44 PM MDT
Astronomical Twilight 3:53 AM MDT 10:30 PM MDT
Moon 4:27 AM MDT (5/15) 5:49 PM MDT (5/15)
Length of Visible Light 15h 43m
Length of Day
14h 38m
Waning Crescent, 8% of the Moon is Illuminated
May 15
Waning Crescent
May 17
New
May 25
First Quarter
Jun 2
Full
Jun 9
Last Quarter

Hourly Weather History & Observations

Time (MDT) Temp. Windchill Dew Point Humidity Pressure Visibility Wind Dir Wind Speed Gust Speed Precip Events Conditions
12:53 AM 50.0 °F - 39.0 °F 66% 29.67 in 10.0 mi SW 12.7 mph - 0.00 in   Mostly Cloudy
1:53 AM 48.0 °F - 39.9 °F 74% 29.67 in 10.0 mi West 4.6 mph - N/A   Clear
2:53 AM 46.9 °F - 42.1 °F 83% 29.68 in 10.0 mi SW 6.9 mph - N/A   Partly Cloudy
3:53 AM 48.0 °F - 42.1 °F 80% 29.68 in 10.0 mi Calm Calm - N/A   Mostly Cloudy
4:53 AM 50.0 °F - 39.0 °F 66% 29.63 in 10.0 mi South 13.8 mph - N/A   Overcast
5:53 AM 48.0 °F - 43.0 °F 83% 29.63 in 10.0 mi NNE 6.9 mph - 0.00 in Rain Light Rain
6:53 AM 46.4 °F 41.5 °F 42.8 °F 87% 29.75 in 10.0 mi NW 10.4 mph - N/A   Mostly Cloudy
7:53 AM 48.0 °F - 44.1 °F 86% 29.66 in 10.0 mi Variable 3.5 mph - N/A   Partly Cloudy
8:53 AM 51.1 °F - 44.1 °F 77% 29.65 in 10.0 mi Calm Calm - N/A   Mostly Cloudy
9:53 AM 53.1 °F - 44.1 °F 71% 29.65 in 10.0 mi Variable 3.5 mph - N/A   Scattered Clouds
10:53 AM 55.0 °F - 44.1 °F 67% 29.63 in 10.0 mi Calm Calm - N/A   Mostly Cloudy
11:53 AM 55.0 °F - 41.0 °F 59% 29.62 in 10.0 mi ESE 10.4 mph - N/A   Mostly Cloudy
12:53 PM 57.0 °F - 39.0 °F 51% 29.58 in 10.0 mi SE 16.1 mph - N/A   Scattered Clouds
1:34 PM 57.9 °F - 37.0 °F 46% 29.69 in 10.0 mi South 20.7 mph - N/A   Overcast
1:53 PM 55.9 °F - 37.0 °F 49% 29.59 in 10.0 mi South 16.1 mph 21.9 mph N/A   Mostly Cloudy
2:53 PM 54.0 °F - 36.0 °F 51% 29.58 in 10.0 mi SW 9.2 mph - N/A   Overcast
3:53 PM 52.0 °F - 37.0 °F 57% 29.58 in 10.0 mi SE 16.1 mph - N/A   Overcast
4:53 PM 54.0 °F - 37.0 °F 53% 29.56 in 10.0 mi SSE 16.1 mph - N/A   Overcast
5:53 PM 55.0 °F - 37.9 °F 53% 29.55 in 10.0 mi West 6.9 mph - N/A   Clear
6:53 PM 54.0 °F - 37.0 °F 53% 29.55 in 10.0 mi NW 12.7 mph - N/A   Clear
7:53 PM 51.8 °F - 39.2 °F 62% 29.67 in 10.0 mi NW 4.6 mph - N/A   Mostly Cloudy
8:53 PM 50.0 °F - 26.1 °F 39% 29.57 in 10.0 mi WNW 12.7 mph - N/A   Clear
9:53 PM 46.9 °F - 39.0 °F 74% 29.57 in 10.0 mi WNW 8.1 mph - N/A   Clear
10:53 PM 44.6 °F 43.1 °F 39.2 °F 81% 29.66 in 10.0 mi WNW 3.5 mph - N/A   Clear
11:53 PM 42.1 °F 38.4 °F 39.9 °F 92% 29.57 in 10.0 mi West 5.8 mph - N/A   Partly Cloudy